Theta_e
353 352 354 356 355 355 355 355 355 354 354 354 353 353 353 353 353 353 352 352 351 350 351 350 348 347 348 347 348 347 346 346 348 349 348 350 349 349 350 350 350 351 350 350 350 350 350 350 349 350 349 350 348 348 347 348 348 348 348 347 347 346 348 348 347 347 347 347 347 348 347 349 348 348 347 347 348 349 347 347 347 347 348 348 347
351 354 354 355 356 355 355 354 354 354 353 353 353 352 352 352 352 352 351 351 351 350 349 349 348 348 348 348 348 347 346 346 347 348 348 349 349 350 350 350 350 350 351 351 351 350 351 351 350 350 349 349 350 350 349 349 348 348 348 347 347 347 347 347 347 347 347 347 347 347 346 347 348 348 347 347 347 348 347 346 345 344 345 346 347
354 353 354 354 355 355 354 354 353 353 352 352 352 352 351 351 351 350 350 350 350 349 349 348 348 348 348 348 347 346 346 346 347 347 348 349 349 351 351 349 349 349 351 350 351 351 350 349 350 350 349 349 349 349 349 348 348 348 348 347 346 346 346 346 346 346 346 346 347 346 347 346 347 346 347 347 347 347 346 346 346 344 344 345 345
352 353 355 355 355 355 354 353 353 353 352 351 351 351 351 350 350 349 349 349 349 348 348 348 348 349 348 347 346 346 346 346 345 346 348 348 348 348 348 348 348 350 350 350 350 350 350 350 349 349 349 349 350 349 349 348 348 347 347 347 346 346 345 345 345 345 346 345 345 345 345 345 345 346 347 347 348 347 346 346 346 346 346 346 345
352 353 354 354 354 355 353 353 352 351 351 351 350 350 350 349 349 348 348 348 348 348 348 349 348 346 347 347 346 346 346 346 345 346 348 348 347 347 348 348 347 349 349 349 350 350 350 350 350 349 349 350 349 349 348 347 347 347 346 346 346 345 345 344 344 345 345 345 344 344 343 344 345 344 345 345 346 345 345 345 346 346 345 345 345
352 354 353 353 352 354 353 352 352 351 351 350 350 349 349 349 348 348 348 348 347 348 347 347 347 347 348 347 346 346 346 346 345 346 348 349 348 348 346 346 347 347 348 348 349 350 350 350 349 350 349 349 348 347 347 346 346 346 346 346 345 344 344 344 344 344 344 343 343 342 341 343 344 343 345 346 346 345 345 345 345 345 345 345 344
354 354 354 353 352 353 353 352 352 351 351 350 350 349 349 348 348 348 348 348 347 347 347 347 348 348 347 347 347 347 346 346 346 346 347 348 348 347 346 346 347 348 348 348 348 349 348 348 348 349 348 348 347 347 346 347 346 346 346 345 345 344 344 344 343 342 341 342 343 341 341 339 341 342 345 345 345 345 345 345 343 343 344 344 344
354 354 353 352 352 354 353 352 352 351 351 350 350 349 349 348 348 348 348 348 348 347 348 347 347 347 347 348 347 347 346 346 346 345 347 348 348 347 347 346 347 347 347 347 348 348 348 347 347 347 347 347 347 347 347 347 346 345 345 345 344 344 343 342 342 341 338 337 339 341 340 338 338 339 343 344 344 345 345 345 344 343 342 342 343
352 353 353 352 352 353 353 352 351 351 351 350 349 349 349 349 348 348 347 347 348 348 348 347 347 348 348 348 347 347 347 347 345 345 346 348 348 348 349 349 347 348 349 348 348 348 347 347 347 346 346 347 348 347 348 348 347 346 345 344 343 343 342 342 341 338 338 336 335 336 337 337 337 337 341 343 344 343 342 342 343 343 343 341 341
351 352 352 352 353 353 353 352 351 351 351 349 349 350 350 349 348 348 348 348 348 348 348 347 347 347 347 347 347 347 347 346 346 345 345 346 347 348 348 347 346 347 347 347 347 347 347 346 345 346 348 348 347 347 346 346 347 346 344 343 343 342 341 341 339 338 337 336 334 335 339 337 334 335 338 342 342 342 342 342 343 343 342 342 341
352 352 352 353 352 353 352 352 351 351 351 351 350 350 349 348 348 348 348 348 348 348 349 348 347 347 347 347 347 347 346 347 347 346 346 346 346 346 346 347 347 347 347 346 347 347 346 345 344 346 347 347 346 346 345 345 345 344 343 342 342 341 340 339 337 336 337 336 337 338 337 337 337 338 337 338 340 341 340 340 340 340 340 340 340
350 352 353 354 353 352 352 351 351 351 351 351 350 349 349 349 348 348 348 348 349 349 349 349 348 347 347 347 347 346 347 347 347 347 347 347 347 347 348 348 347 347 346 347 347 347 345 345 346 346 346 347 346 346 345 344 343 343 342 341 340 340 340 338 336 336 336 335 335 336 335 334 335 338 339 340 341 341 340 339 339 339 339 338 338
350 351 353 354 352 353 351 351 351 351 351 351 350 349 349 349 348 348 349 349 349 349 349 349 349 348 347 347 346 347 347 346 346 346 347 347 347 348 348 347 347 346 347 346 347 346 345 346 346 346 346 346 345 345 345 344 343 342 341 341 340 339 339 337 335 335 335 335 335 335 336 338 340 340 342 341 341 340 339 339 341 340 339 339 340
350 351 352 353 352 353 351 351 351 351 350 351 349 349 349 349 349 349 350 350 349 349 349 349 349 349 348 347 347 346 346 346 346 347 347 348 348 348 347 347 346 346 346 347 347 347 346 346 346 346 346 346 345 345 344 343 342 341 341 340 339 339 338 337 338 337 337 336 337 334 334 336 340 341 339 340 339 338 339 340 339 340 340 341 341
350 352 353 352 352 351 353 352 352 351 351 351 350 349 349 349 350 351 350 350 350 350 349 349 349 348 347 346 346 346 346 346 347 348 349 348 348 348 347 347 346 347 346 346 347 347 346 346 345 345 346 346 344 344 343 343 342 341 340 339 339 338 336 336 337 337 336 335 335 335 336 338 340 339 336 336 336 336 339 339 339 339 339 340 340
352 351 352 353 352 352 352 353 352 351 350 351 351 350 350 350 351 351 351 350 350 350 349 349 349 349 347 346 346 346 346 347 348 349 348 348 348 348 347 347 346 346 346 346 346 347 346 346 346 346 346 345 344 343 343 342 341 340 339 339 338 338 337 338 338 337 337 336 335 336 335 337 339 340 338 338 338 339 339 338 336 336 337 339 339
350 351 350 350 352 350 350 351 351 351 351 351 351 351 350 350 351 351 351 350 350 350 349 349 349 348 347 346 346 347 347 348 348 348 348 348 348 347 346 346 346 346 346 345 346 345 345 345 346 347 346 346 344 343 343 342 341 340 339 339 338 338 338 338 337 337 336 335 334 335 337 337 335 339 339 338 338 337 338 338 338 339 339 337 337
350 350 349 350 351 350 351 351 352 352 352 352 351 351 351 351 351 350 351 350 350 350 349 349 349 349 348 347 347 347 347 348 348 348 348 348 347 346 346 346 346 346 346 345 345 345 345 346 346 346 347 346 344 344 343 341 340 340 339 338 338 337 338 338 338 337 336 335 334 336 337 336 337 337 336 335 335 341 341 340 339 340 340 339 339
349 350 350 349 349 350 350 351 352 351 352 352 351 352 351 351 351 350 351 350 350 350 349 349 349 348 347 346 346 347 347 348 348 349 348 347 347 346 346 346 345 345 345 346 346 345 345 346 346 346 346 346 345 344 342 341 340 339 339 338 338 338 338 338 337 336 336 336 337 336 337 337 337 337 338 337 337 337 338 338 339 338 338 338 338
348 348 349 350 351 350 350 350 351 351 351 352 352 352 352 351 351 351 351 350 350 350 350 349 349 349 348 347 347 348 348 349 349 349 348 347 346 346 346 346 346 345 345 345 346 345 345 345 345 345 346 346 345 343 342 341 340 339 339 338 338 337 338 337 336 336 336 336 337 337 337 338 337 336 336 336 336 336 334 334 335 335 335 335 335
346 347 348 349 351 349 349 349 350 351 351 351 351 351 351 351 351 350 350 351 350 350 350 349 350 349 349 349 347 349 350 350 349 349 348 349 346 346 346 346 345 346 345 345 345 345 345 344 344 345 345 345 343 342 342 341 340 339 339 339 337 338 338 338 338 337 337 336 337 336 336 337 336 337 336 336 335 335 336 335 334 334 334 334 333
344 346 348 348 349 349 349 348 349 349 350 350 350 351 351 350 351 351 351 351 351 351 351 351 351 350 348 349 350 349 348 349 349 349 349 349 348 346 346 346 346 345 345 345 345 345 344 343 344 344 344 344 343 343 343 341 340 340 339 337 337 337 339 339 339 337 337 337 337 336 336 336 336 336 335 335 335 336 335 334 333 333 333 332 332
342 344 347 349 349 348 349 348 348 349 350 350 349 350 351 351 350 351 350 350 351 352 350 351 350 350 349 348 349 349 348 348 349 347 348 347 348 346 346 345 345 344 344 345 345 345 344 343 343 343 343 342 344 344 341 340 341 339 337 338 338 338 339 340 340 339 337 337 337 337 338 338 335 336 336 335 334 334 333 332 331 333 332 330 329
342 343 344 347 348 347 348 348 348 349 349 349 349 349 349 350 349 349 349 350 351 350 350 350 350 349 348 349 348 348 348 348 348 347 348 349 348 346 345 345 345 344 343 345 344 344 343 342 341 340 341 344 346 343 342 341 341 340 340 338 337 337 339 340 338 338 338 336 336 337 336 336 335 334 334 333 333 333 333 333 331 329 330 331 331
343 345 345 345 347 348 348 348 348 348 349 348 348 347 348 348 348 347 348 348 348 348 348 349 350 349 349 348 348 348 348 348 347 348 348 347 347 347 347 346 345 344 342 344 345 341 344 342 341 341 343 344 343 343 342 341 340 338 338 338 337 338 338 339 338 338 339 338 338 338 335 338 335 335 333 334 333 333 332 332 333 332 331 332 332
345 342 343 345 347 348 348 348 347 348 348 347 348 347 347 346 346 346 347 347 347 347 348 348 348 348 348 348 349 348 347 346 346 346 346 347 345 345 344 345 344 344 343 341 340 341 342 341 341 341 342 344 343 343 342 339 338 337 337 338 337 338 338 337 338 339 338 338 338 335 338 336 334 334 334 334 333 332 331 330 331 331 331 331 331
341 341 344 346 346 348 348 348 346 347 346 348 348 347 347 347 346 347 346 345 346 346 345 346 348 347 347 347 346 348 348 346 345 345 344 345 345 344 344 344 343 343 343 340 339 340 340 340 341 342 342 342 342 342 340 339 338 336 337 337 338 337 339 338 338 338 337 337 337 339 339 336 337 334 334 332 334 334 333 332 331 331 331 331 331
341 341 342 345 345 346 348 348 346 346 346 347 347 346 347 346 346 346 347 346 345 345 345 346 347 346 347 349 348 347 345 345 344 344 343 344 344 344 345 343 343 342 343 340 338 338 338 339 340 340 340 341 341 340 338 337 337 338 336 338 337 338 339 338 339 339 338 338 337 337 337 337 338 335 334 334 335 333 332 333 333 332 331 331 332
338 341 342 342 344 346 347 346 347 347 347 347 346 346 346 346 346 345 346 347 345 344 345 346 346 346 346 345 347 345 345 345 344 343 343 343 343 343 344 343 343 342 342 339 339 338 338 338 338 339 341 341 340 340 338 337 338 339 337 336 336 338 339 339 340 338 338 337 337 336 335 335 337 337 334 333 332 333 334 335 335 334 333 331 327
340 341 341 342 343 346 346 345 346 346 347 346 347 347 346 345 345 345 346 347 344 344 346 344 346 345 344 345 346 345 344 344 343 343 342 344 343 343 343 343 342 342 343 341 340 338 337 338 338 338 338 341 341 340 338 338 336 338 337 337 338 338 340 339 339 338 337 337 339 338 335 337 337 337 336 332 333 334 334 334 333 331 330 331 330
340 341 339 342 344 346 345 346 346 347 346 346 346 346 347 345 345 345 345 345 346 345 343 344 345 345 344 345 346 345 344 344 343 342 343 342 341 341 341 342 341 342 343 342 342 340 338 338 339 338 339 341 341 340 339 338 337 336 337 336 338 340 339 340 339 338 337 337 338 338 336 335 337 337 337 338 335 334 334 331 329 329 332 331 331
338 339 340 341 344 343 345 346 346 346 347 345 346 345 345 345 345 345 345 346 347 344 343 344 345 346 345 345 346 345 344 344 342 342 341 341 341 340 341 341 340 341 342 342 341 341 340 339 339 342 343 343 342 341 342 340 339 337 338 335 336 338 338 339 338 338 338 338 337 337 337 336 336 338 338 337 337 334 331 331 331 331 332 331 330
340 341 341 340 342 343 342 344 345 346 347 345 345 345 346 345 345 344 346 345 345 344 343 343 344 346 345 346 345 345 344 343 342 342 341 342 341 341 340 340 341 340 342 342 343 342 341 339 339 341 340 342 342 341 341 342 340 339 337 336 338 338 339 337 337 337 337 337 337 336 337 336 336 338 337 336 338 336 332 332 332 333 333 333 331
339 340 342 339 341 342 342 342 344 344 345 346 345 345 346 345 346 346 346 345 346 345 344 344 344 345 344 344 344 344 343 343 342 341 342 342 341 340 340 340 341 341 342 342 341 341 339 338 338 339 338 340 339 338 337 337 337 337 337 337 338 338 337 336 337 337 337 337 337 337 336 337 336 336 334 336 337 338 338 332 330 333 332 332 331
340 340 339 340 341 341 341 340 342 343 344 345 344 344 345 344 345 344 345 343 343 343 344 344 345 344 344 340 342 343 343 343 343 342 341 340 340 340 339 339 340 341 341 341 341 341 340 338 338 337 335 336 336 336 336 336 336 334 335 336 335 336 336 336 337 336 336 337 338 337 337 336 337 337 335 335 337 337 337 334 330 330 329 331 331
341 341 340 340 340 340 341 340 341 341 342 344 344 344 344 344 343 342 341 343 342 341 342 342 343 343 343 337 340 343 344 344 343 343 340 340 340 338 340 341 341 341 341 342 341 339 339 338 339 339 335 334 335 335 335 335 335 334 335 335 336 336 335 336 336 335 335 337 336 337 337 336 337 336 335 335 337 337 336 335 334 331 331 330 329
342 343 340 340 339 340 340 339 339 340 342 342 343 343 344 342 340 341 340 341 341 341 343 341 343 343 338 337 338 342 342 343 344 344 343 336 339 340 339 339 341 341 341 341 340 340 339 337 337 339 340 336 333 333 333 335 334 334 334 335 336 335 335 336 336 336 336 335 335 336 336 336 336 336 337 336 338 339 336 336 333 333 331 329 329
343 343 342 341 340 339 340 339 339 340 342 342 341 342 342 341 340 340 340 339 340 343 342 341 341 341 340 340 340 342 343 343 343 343 342 337 338 337 338 339 340 340 340 339 340 340 339 339 334 337 338 337 334 333 333 333 334 333 334 334 336 336 336 336 336 337 336 333 334 335 335 337 336 337 336 338 338 339 339 336 336 335 333 334 332
342 342 341 341 341 340 339 338 338 339 340 341 340 340 340 340 341 339 339 339 339 340 341 342 341 341 340 340 340 342 343 343 342 339 336 335 335 337 338 339 340 340 339 339 338 336 336 336 336 334 336 336 335 334 334 334 334 333 333 335 335 335 336 338 338 335 335 335 334 334 336 336 336 336 336 337 338 340 339 337 336 336 334 333 334
342 341 340 340 340 339 338 337 338 339 339 338 337 337 336 335 334 335 336 336 337 337 339 340 341 340 339 340 340 341 341 338 335 336 335 333 334 337 337 339 340 339 338 336 334 334 333 334 336 335 333 334 334 334 335 334 333 332 332 333 334 334 334 337 337 335 335 335 335 335 334 335 336 336 335 336 337 340 339 337 339 335 336 334 334
340 339 339 339 339 338 337 335 337 339 337 335 334 334 333 333 333 334 334 336 336 336 337 339 340 341 340 340 340 340 337 335 334 334 333 333 335 336 338 338 339 337 336 335 334 334 336 337 336 336 333 331 331 334 335 335 331 329 331 330 332 336 336 334 333 334 335 337 335 334 335 335 335 334 335 337 336 339 340 337 339 339 335 337 334
337 334 333 334 336 335 335 332 334 336 337 336 336 335 335 335 335 334 333 334 333 333 335 339 340 340 340 340 341 340 338 335 335 334 334 333 332 333 335 336 335 335 334 334 334 334 334 337 335 333 333 332 331 334 333 332 328 326 325 324 329 329 331 332 331 332 335 336 334 334 334 334 333 335 335 335 335 337 336 336 338 338 336 336 336
333 332 333 331 330 329 329 329 331 335 335 336 336 335 336 337 337 337 335 333 335 335 337 341 341 340 341 339 341 339 337 338 336 335 335 333 333 334 335 335 335 334 333 333 332 330 332 332 334 333 330 332 331 333 333 334 329 330 331 327 321 319 324 327 330 330 332 335 334 333 333 334 333 335 337 336 334 335 335 335 335 338 339 338 338
328 327 328 328 328 328 328 328 332 333 333 335 336 337 337 336 336 337 335 333 332 335 337 339 342 339 337 340 341 337 336 337 336 335 335 335 334 334 335 335 335 335 335 334 333 331 331 331 334 334 333 327 329 330 334 333 333 330 323 324 324 322 317 320 324 328 332 332 332 332 333 333 334 333 335 336 335 334 334 335 336 337 335 337 339
327 328 329 329 329 329 329 332 332 332 332 333 333 333 334 334 335 335 336 333 335 335 335 334 336 337 338 337 336 337 337 337 337 334 335 334 334 335 334 334 333 334 335 335 334 332 331 332 333 334 333 330 327 329 331 333 334 335 330 323 321 319 319 323 324 325 330 329 330 331 333 332 332 333 334 335 335 334 334 335 337 337 337 337 339
328 329 332 332 330 328 330 331 331 331 330 331 333 333 332 332 333 331 330 331 330 329 330 330 333 333 334 337 337 336 336 336 336 335 335 334 334 334 334 334 333 333 334 334 334 333 332 332 333 333 334 336 332 328 328 332 334 334 335 334 330 322 323 324 322 318 328 330 331 333 333 333 333 332 333 334 334 333 333 336 336 337 336 336 336
333 331 330 329 329 329 331 332 331 330 331 331 332 332 331 332 332 331 332 331 331 330 334 335 334 336 337 337 335 335 336 335 335 334 335 334 334 334 334 334 336 334 335 334 334 332 332 333 335 336 334 334 332 328 327 328 331 332 332 333 331 330 331 325 320 324 318 324 330 330 329 331 330 330 331 331 333 333 333 333 334 335 334 334 335
327 328 328 328 329 329 330 331 330 329 330 331 331 331 331 331 330 330 330 329 329 330 332 335 337 337 337 338 337 336 336 335 334 333 334 333 333 333 335 334 334 334 335 333 334 335 334 334 335 336 334 331 332 330 329 329 326 327 331 330 331 332 333 332 330 324 321 318 320 327 329 330 331 332 332 331 331 332 330 332 333 332 333 333 333
326 326 328 328 329 330 330 330 329 329 330 330 330 330 330 331 330 329 328 329 330 330 329 331 333 336 336 338 336 335 335 334 333 333 333 333 334 333 334 333 334 334 334 334 335 335 334 332 332 331 331 330 331 332 331 329 329 329 328 328 330 331 331 331 330 329 324 321 320 321 322 326 330 331 331 332 332 332 332 332 331 331 332 331 332
327 327 328 329 330 331 330 330 329 330 330 331 331 330 330 330 330 330 330 330 331 332 331 330 332 335 334 335 335 335 334 333 332 333 332 333 333 333 334 333 334 334 334 334 334 333 333 333 332 331 331 330 331 332 332 332 332 333 330 329 328 329 328 327 328 327 326 326 321 319 322 321 320 325 330 331 331 332 331 331 331 330 331 330 330
326 328 328 329 329 329 330 329 328 329 331 331 331 330 331 331 331 331 332 332 333 332 332 332 333 334 332 333 333 333 334 334 332 332 334 334 333 334 334 334 334 335 334 334 335 332 333 334 334 333 332 331 330 332 333 335 334 333 331 331 330 329 328 327 327 327 326 323 321 321 322 322 322 322 327 331 331 331 330 331 330 330 330 330 329
Wind_Speed
13 15 14 14 14 14 15 15 16 15 16 16 16 19 20 20 19 19 19 20 20 20 20 19 19 19 19 19 18 18 17 16 14 13 13 17 18 17 17 17 17 17 18 19 20 21 20 20 19 18 19 19 19 19 18 18 17 16 15 15 16 17 17 17 17 17 17 16 15 15 15 17 17 17 16 16 16 15 13 12 10 10 10 13 16
16 14 13 14 14 15 16 17 17 16 16 16 17 16 18 20 20 19 20 20 20 19 19 18 19 19 18 18 18 17 17 17 15 13 13 17 18 18 17 17 17 17 18 19 20 21 21 20 20 18 17 19 19 19 19 18 17 17 17 16 16 16 16 15 15 15 15 15 16 16 17 18 17 15 15 16 16 15 14 13 12 10 10 15 15
15 14 13 15 15 14 15 17 18 17 16 16 16 16 16 16 17 19 20 20 19 19 18 18 18 18 18 17 18 18 17 15 14 13 13 16 17 18 17 17 18 18 18 20 20 20 21 20 20 18 18 19 19 19 19 18 17 17 16 16 15 15 15 14 14 14 14 13 12 16 17 17 16 15 17 16 17 17 16 15 15 13 12 15 15
16 13 13 15 16 14 16 17 18 18 17 16 16 17 16 16 16 17 18 19 19 18 18 17 17 17 17 17 17 17 17 17 15 14 12 14 16 18 18 17 18 18 18 19 19 19 19 20 19 19 18 19 19 18 17 16 16 16 16 15 15 15 14 14 13 14 14 12 11 10 9 11 13 15 16 16 17 17 17 17 17 17 16 15 16
15 14 13 13 15 15 15 16 18 19 18 17 17 17 16 15 15 16 16 17 17 17 18 16 17 17 17 16 17 17 17 16 15 14 12 12 15 16 18 18 18 18 17 17 18 18 19 19 18 18 18 17 17 16 15 15 15 15 15 15 14 14 14 14 13 13 13 12 9 10 9 11 11 15 14 17 17 17 17 17 17 17 16 17 16
14 13 13 13 14 15 15 17 18 18 18 18 18 18 16 16 16 16 16 16 17 17 17 17 17 16 16 16 17 17 17 16 15 15 12 11 13 15 17 18 17 17 17 16 17 17 18 18 18 18 17 16 15 14 14 14 14 14 14 14 14 14 14 13 13 12 11 10 10 8 9 10 10 10 16 16 16 16 16 17 17 16 16 17 16
15 12 12 12 12 15 16 17 19 19 18 18 18 18 17 16 16 16 15 16 17 17 17 16 16 16 16 17 17 18 17 17 16 14 10 9 12 14 17 18 17 17 16 16 16 16 16 16 16 15 15 14 13 12 12 12 13 14 15 15 14 14 13 13 12 11 9 7 7 7 7 9 10 9 16 16 15 16 17 16 16 15 15 16 16
12 12 12 12 12 16 16 17 18 19 19 18 19 19 17 17 16 15 16 16 16 16 17 16 16 16 16 16 16 17 17 17 16 13 9 9 10 12 14 17 17 15 15 15 15 15 15 15 15 15 14 13 13 12 11 11 13 14 14 15 14 14 13 13 12 11 9 7 7 6 7 8 8 8 13 15 15 15 16 17 15 15 15 15 14
12 13 11 12 13 19 16 16 17 19 19 19 19 19 17 17 17 16 16 16 16 16 17 16 16 16 15 15 16 16 17 17 16 12 8 10 10 11 12 14 15 13 13 12 12 12 14 14 14 13 13 13 13 13 12 13 15 15 15 14 14 14 13 12 11 10 7 7 7 6 7 7 8 7 11 13 14 14 13 12 13 15 15 14 14
12 11 12 11 14 18 17 16 16 18 18 19 18 18 18 17 16 16 16 16 16 16 15 16 16 16 15 15 15 16 16 17 16 14 11 10 11 13 13 14 15 15 15 14 14 14 13 13 12 13 13 14 14 14 14 16 16 15 14 14 14 13 13 11 11 8 7 7 8 8 7 6 8 8 11 12 13 14 16 16 14 14 13 15 16
13 11 10 12 17 16 16 16 17 19 18 18 18 18 18 17 18 17 17 16 16 15 14 15 16 15 15 15 15 16 16 16 15 15 14 12 12 12 13 12 13 13 14 14 14 14 13 12 12 13 13 14 14 14 15 16 15 14 14 14 14 13 11 9 7 7 8 9 9 9 9 7 8 8 10 12 12 14 14 14 13 13 14 15 14
13 11 12 12 17 15 16 17 18 18 19 19 19 18 18 17 17 17 17 16 16 15 14 13 13 14 15 15 15 15 15 16 15 15 14 14 14 14 13 12 12 12 13 14 13 13 12 13 13 12 13 13 14 15 15 15 15 14 14 14 13 12 10 8 7 7 8 9 9 8 8 8 9 11 12 11 13 14 13 13 12 13 13 13 13
13 12 12 14 14 15 15 16 18 19 18 19 18 18 17 17 17 17 15 14 14 15 14 12 12 13 13 14 15 15 15 14 14 13 14 13 13 13 12 11 11 11 12 13 13 12 13 13 13 12 13 13 13 14 15 15 15 15 14 14 13 12 10 8 8 8 8 9 8 8 9 9 10 12 13 13 13 13 13 14 14 14 13 13 13
12 12 13 13 11 17 14 15 15 17 18 17 17 16 17 16 16 14 13 14 14 13 12 11 12 12 11 11 13 15 14 13 13 13 14 13 13 12 11 11 10 11 12 12 13 13 13 13 12 12 12 13 13 13 14 14 14 15 15 14 13 13 12 8 8 9 9 9 9 9 9 8 10 11 11 12 12 12 13 14 14 14 14 15 14
13 14 13 13 12 13 16 13 14 15 15 15 15 15 15 15 14 14 14 14 14 14 13 12 12 13 13 12 13 13 14 12 12 13 14 13 12 12 12 11 11 11 12 12 12 13 13 12 11 10 11 11 11 12 13 14 14 14 14 14 13 11 9 8 7 8 8 8 8 9 9 8 10 8 9 9 11 12 13 13 12 13 13 14 14
13 14 14 13 13 13 13 14 13 14 15 15 15 14 14 14 14 15 14 14 14 13 13 13 14 14 14 13 12 12 12 11 11 12 13 12 12 12 11 11 11 12 12 11 12 12 12 11 10 9 10 11 12 12 12 13 13 14 14 14 13 11 9 7 7 7 7 7 7 8 8 9 8 8 11 12 12 12 13 12 11 10 12 13 13
12 12 13 14 14 12 11 11 13 14 14 12 13 13 13 13 13 13 14 14 14 13 13 13 14 14 14 15 14 13 12 12 13 13 13 12 12 12 11 11 11 11 11 11 11 11 11 11 10 9 10 11 12 12 12 12 13 13 14 14 14 12 9 7 7 7 6 7 6 6 7 7 6 9 12 12 11 11 11 12 13 13 12 12 13
12 12 12 13 13 12 11 12 13 12 13 13 13 13 13 13 13 14 14 14 14 14 13 13 13 13 13 14 14 13 13 13 12 11 11 11 12 11 10 11 12 11 11 11 10 10 10 10 10 10 10 11 12 12 12 12 12 12 13 13 14 13 10 7 7 7 7 7 7 6 7 9 8 10 10 11 11 13 12 12 12 13 14 13 13
11 11 12 13 12 12 12 11 12 11 12 10 10 13 13 14 14 14 14 14 13 13 13 13 14 15 16 15 15 15 13 12 13 11 10 10 11 11 10 10 12 12 11 10 10 9 9 9 9 9 10 12 12 12 12 12 12 12 12 13 14 13 11 7 7 7 7 6 6 7 7 9 7 9 11 10 10 11 12 12 12 12 12 12 13
9 10 10 11 11 12 11 10 10 11 11 10 11 12 14 14 15 14 14 13 13 13 14 14 15 15 16 15 14 13 12 11 14 11 10 9 8 8 10 9 10 12 11 10 9 8 8 8 8 9 11 12 12 12 12 12 12 12 12 12 13 12 7 6 8 7 6 6 6 7 9 9 9 9 10 10 10 11 9 10 9 9 9 9 10
8 10 8 9 11 11 11 9 10 11 11 11 10 11 13 15 13 14 13 13 14 15 15 16 14 15 15 13 11 10 10 10 11 10 10 8 9 10 9 9 9 11 12 11 10 8 7 7 8 10 12 13 12 13 12 12 12 12 11 11 10 6 6 7 7 6 6 6 6 7 9 9 9 9 9 9 9 10 11 10 10 9 9 8 8
9 8 9 10 10 10 11 11 10 11 11 9 9 9 11 13 12 13 12 13 13 14 13 12 13 12 14 12 10 8 8 9 9 11 8 8 8 9 10 9 10 10 11 11 10 8 7 7 9 11 13 14 14 9 9 10 11 11 10 9 5 6 6 6 6 6 7 5 5 8 9 10 10 9 9 9 9 10 10 10 10 9 9 9 9
10 9 8 10 9 9 10 10 10 11 12 10 9 10 12 10 12 11 10 13 13 12 11 11 11 11 12 11 9 8 9 8 9 8 8 8 8 10 10 10 9 10 10 10 10 9 7 7 10 10 9 12 9 7 7 7 7 10 9 5 5 5 6 6 5 5 5 5 6 7 8 8 9 10 9 9 9 9 8 8 9 10 10 8 8
11 10 9 8 9 9 11 11 11 12 11 9 9 10 10 10 10 10 10 10 11 10 10 11 10 11 10 9 8 8 9 8 10 12 11 7 7 9 10 11 11 9 9 9 10 10 10 8 9 10 8 7 6 6 7 6 6 5 4 4 4 6 5 5 5 5 5 5 6 9 9 8 8 9 9 8 8 8 9 9 9 8 10 10 10
9 9 9 9 10 11 10 11 11 11 11 9 10 10 10 10 10 10 10 9 10 9 9 9 9 10 10 8 8 8 7 7 8 9 7 7 7 7 7 5 5 6 5 6 5 6 6 7 6 5 4 5 6 5 6 6 5 5 4 4 5 5 5 4 4 5 5 5 7 5 4 7 9 8 7 9 8 9 9 9 9 9 10 10 9
10 9 10 10 11 11 11 10 11 11 11 10 10 10 11 10 10 9 9 8 8 8 8 8 8 9 8 8 8 7 7 6 8 7 6 6 7 6 6 6 5 5 4 4 4 5 5 5 6 6 4 5 5 5 5 5 6 5 5 5 5 5 4 4 4 4 5 5 6 5 2 10 8 8 8 9 8 8 7 8 8 8 8 8 9
10 9 9 9 11 12 12 12 11 11 11 10 9 9 9 8 8 8 9 8 8 8 8 7 7 8 9 9 8 6 6 6 7 7 7 6 6 6 5 5 5 4 4 4 4 4 4 5 5 5 4 5 6 5 5 5 5 6 5 5 5 5 4 4 4 5 5 5 7 5 7 8 5 8 8 7 8 8 8 9 9 8 7 8 10
10 10 10 11 11 13 12 12 11 12 10 9 9 9 8 8 8 9 8 8 8 8 8 7 8 8 8 7 6 5 7 6 6 6 6 6 6 6 5 5 5 4 3 3 5 4 4 4 5 5 6 5 6 6 5 5 5 5 6 5 5 4 4 4 4 4 5 5 6 7 7 6 4 9 7 8 9 8 7 7 7 8 8 8 9
11 11 10 11 12 12 13 13 12 12 10 10 10 9 9 9 8 9 9 9 8 8 7 8 8 7 7 7 6 5 5 6 7 7 6 6 6 6 5 5 4 4 3 3 3 4 4 4 4 5 5 5 5 5 5 5 5 5 5 6 5 5 4 4 4 4 4 4 4 7 7 6 4 4 7 7 7 6 7 8 8 8 9 8 6
11 12 12 11 12 12 14 14 12 12 11 11 9 9 9 8 8 8 8 9 8 8 8 8 8 7 7 6 7 6 7 7 7 6 7 6 6 6 5 5 4 4 3 3 3 3 4 4 4 4 5 5 5 5 5 5 5 5 5 5 5 4 4 4 4 4 5 4 4 6 7 4 4 5 5 5 6 6 6 8 8 7 7 8 8
12 13 13 11 10 10 12 12 12 10 10 11 9 9 9 9 8 8 8 8 8 8 8 8 7 7 7 8 8 9 8 7 8 7 6 6 6 6 5 4 5 4 4 3 2 3 3 3 3 4 4 4 4 5 5 5 5 5 4 5 4 4 4 4 4 4 5 4 4 5 6 6 6 6 3 1 5 6 6 4 5 5 9 7 7
14 13 12 10 9 13 11 12 12 9 10 10 9 9 10 9 8 8 8 8 8 8 8 8 6 7 8 8 7 8 8 7 8 8 7 7 6 6 5 5 4 5 5 4 3 3 3 4 4 3 2 3 4 4 3 4 4 4 4 5 5 4 4 4 5 4 4 4 4 4 4 5 6 5 5 6 4 4 4 5 5 5 6 7 8
11 13 12 12 13 13 12 11 12 11 12 12 10 10 9 8 8 8 8 7 7 8 8 8 8 7 7 8 7 8 7 7 8 8 7 6 7 7 6 5 5 5 5 6 5 4 4 4 4 4 3 3 4 4 2 2 3 3 4 5 4 4 4 5 4 4 4 4 3 3 4 5 6 5 6 6 6 5 4 4 4 5 6 7 7
9 9 10 13 11 9 10 10 10 10 10 9 9 8 8 8 7 7 7 6 6 7 7 8 8 7 7 7 7 8 8 8 8 7 6 6 6 6 6 5 5 5 5 5 6 5 4 5 5 4 4 3 4 5 5 5 4 4 4 3 4 4 5 4 4 4 4 4 3 3 4 4 4 4 5 6 6 5 5 2 4 6 6 6 7
9 9 12 12 12 11 10 9 9 10 10 9 9 8 7 6 6 7 5 7 7 7 7 8 7 7 7 2 5 7 8 8 8 6 7 6 6 6 6 6 6 6 5 5 5 5 5 5 5 5 5 4 5 5 5 5 5 5 5 5 5 5 5 5 5 5 4 4 4 4 3 3 4 4 4 5 6 7 7 7 6 3 5 7 6
12 11 10 9 11 12 10 9 9 11 10 10 10 9 8 6 5 6 5 9 7 7 6 7 7 7 2 4 8 8 8 8 8 7 6 5 6 6 5 6 7 6 5 5 5 6 5 6 6 6 6 6 6 5 4 5 5 5 5 5 5 5 5 5 5 4 4 4 4 4 3 3 4 3 2 3 3 5 7 5 5 3 5 6 5
9 8 10 10 10 11 9 10 10 10 11 11 10 9 8 6 6 6 6 8 7 9 6 7 7 5 5 5 7 7 8 7 7 6 4 2 5 5 5 6 6 5 4 4 5 4 5 6 6 6 6 6 6 6 5 5 5 5 6 6 6 6 5 5 5 4 4 4 4 4 4 4 4 4 3 2 3 3 6 5 5 4 3 4 4
8 7 9 10 10 9 9 10 8 9 8 8 8 8 7 7 7 7 7 7 9 7 5 7 6 6 7 8 9 7 6 5 5 4 2 5 5 4 5 5 5 5 4 4 4 4 5 7 7 5 5 6 6 6 6 6 5 5 5 6 6 5 5 5 5 5 5 4 4 4 4 3 4 3 3 2 3 2 3 5 4 3 2 2 3
7 10 10 9 8 7 8 8 8 8 8 7 7 6 7 7 6 7 8 9 8 6 6 6 6 6 6 7 6 5 4 4 3 3 2 3 3 3 4 5 5 5 5 4 5 6 6 6 8 7 6 5 6 6 6 6 6 6 6 6 6 5 5 4 4 4 4 5 4 4 3 3 3 3 3 2 2 1 2 2 4 4 5 4 3
9 9 10 9 8 6 6 6 7 7 5 3 3 4 4 5 6 7 8 6 5 5 5 6 5 5 5 5 5 4 2 6 6 4 3 4 3 3 5 5 5 5 5 6 5 6 8 8 8 9 8 6 6 6 7 7 7 6 6 6 6 5 5 4 4 4 4 5 5 4 4 3 3 3 3 2 2 1 1 1 1 3 4 6 3
8 8 8 7 5 4 5 5 5 6 4 3 3 4 3 3 4 5 5 5 4 4 5 6 6 4 5 6 6 4 5 4 5 5 5 5 5 3 5 6 6 5 6 4 5 6 8 9 8 7 9 8 7 7 8 8 8 8 6 6 4 4 4 5 4 4 5 4 4 5 4 4 4 3 2 2 2 2 1 1 1 1 2 3 5
4 6 9 11 11 9 7 7 5 2 4 4 4 3 2 1 1 2 1 3 3 2 5 6 6 5 6 6 5 4 7 7 6 6 6 6 6 7 8 6 6 5 5 4 5 5 6 6 8 7 6 7 7 9 9 9 7 8 7 6 3 3 3 4 5 5 5 5 5 5 4 4 4 2 2 3 2 3 2 2 2 2 2 1 2
11 12 9 11 7 5 5 6 4 3 2 2 2 2 2 4 5 5 4 2 2 2 5 5 5 4 5 7 5 5 8 8 8 7 5 7 7 9 7 6 6 6 6 7 7 7 5 6 7 7 7 6 6 8 10 9 6 7 7 6 5 4 3 3 3 4 6 5 6 6 5 5 4 3 2 2 2 2 2 1 3 3 2 2 1
11 7 7 9 7 8 5 4 2 2 1 1 3 5 5 6 4 3 2 2 1 2 5 6 4 4 6 6 4 6 7 6 9 8 8 8 9 7 5 5 5 6 7 7 8 8 8 8 7 8 8 7 7 8 9 6 5 9 8 4 6 5 4 6 5 4 4 5 6 6 5 4 3 2 1 3 2 1 2 2 1 2 3 2 2
8 7 6 6 4 4 6 5 3 2 1 2 3 1 1 1 1 1 3 3 1 2 4 5 4 4 5 3 5 6 7 5 6 9 8 7 6 6 6 5 5 6 7 8 9 9 7 8 9 10 11 10 10 7 8 8 8 5 4 5 4 5 5 4 7 3 4 4 5 5 4 5 3 3 3 3 2 2 3 3 1 1 2 1 2
4 6 7 5 6 6 6 6 5 4 3 3 3 3 2 2 2 3 3 2 2 3 3 5 3 5 6 6 5 6 7 6 5 9 10 8 7 7 6 6 5 5 7 6 7 7 8 11 12 11 11 8 9 9 9 7 8 4 1 3 2 1 5 6 7 5 4 4 4 4 4 3 3 4 3 3 3 3 3 2 2 1 1 2 1
1 4 6 7 8 5 4 2 2 2 2 2 2 2 3 3 3 4 4 4 3 4 3 4 5 6 6 6 5 8 7 6 6 7 8 9 7 6 8 7 5 5 6 7 8 10 10 10 9 9 7 7 8 9 11 10 7 6 4 1 2 1 3 8 6 5 6 4 4 4 4 4 3 4 4 4 3 2 0 1 2 1 1 2 2
9 8 6 8 9 8 5 3 2 2 2 2 2 2 3 3 3 3 2 2 5 5 4 4 6 6 9 8 6 7 7 5 4 9 8 8 7 8 8 8 7 8 8 10 10 10 8 8 9 6 9 11 8 8 9 10 11 9 7 4 2 1 5 3 3 5 4 6 6 3 3 4 4 4 3 4 4 3 3 3 1 2 1 0 1
9 9 8 9 8 7 7 5 3 3 3 3 3 3 3 3 4 5 6 5 6 6 7 7 5 5 10 7 7 7 6 9 9 7 6 8 8 8 9 9 10 9 9 9 9 9 11 11 9 9 10 9 8 6 7 10 10 8 9 6 4 4 5 3 3 3 4 5 5 7 6 3 3 3 3 2 2 2 3 3 1 1 1 1 0
7 7 7 7 6 5 6 7 6 4 4 4 3 4 6 5 5 5 6 6 5 5 4 5 5 6 8 9 7 6 6 6 8 4 7 8 7 7 9 11 11 11 9 10 10 7 6 8 10 12 11 10 8 8 9 9 10 8 10 8 7 5 5 4 4 5 3 4 2 7 7 8 7 4 3 4 4 4 4 3 2 2 2 1 0
8 8 7 6 7 7 6 7 4 4 4 5 5 5 5 6 6 7 8 9 9 7 7 7 7 8 8 8 7 7 6 5 5 6 7 10 11 10 10 10 10 9 10 11 9 8 7 9 9 11 11 12 10 11 9 8 8 7 10 7 7 8 7 6 6 6 5 5 4 5 6 7 6 6 5 3 3 4 3 3 3 2 1 1 1
Wind_Direction
153 144 140 137 136 133 126 118 112 109 109 110 112 118 120 121 122 124 124 123 122 122 122 122 122 122 123 123 124 121 121 122 118 116 118 115 113 110 109 110 108 104 102 102 103 105 103 102 102 101 100 100 101 100 97 90 87 89 86 83 79 77 76 77 76 77 79 82 84 95 87 82 79 78 81 85 81 76 74 70 72 72 72 73 68
147 141 139 140 131 132 128 122 117 114 112 112 112 109 114 119 122 123 123 122 120 120 120 120 122 122 121 122 123 123 124 123 120 119 119 115 115 112 112 109 109 105 100 100 100 102 102 101 102 99 98 101 97 90 87 85 83 81 80 78 74 73 72 68 69 71 71 72 79 80 80 78 79 79 76 79 79 74 69 63 54 67 69 68 69
136 137 138 138 133 130 126 122 120 116 113 111 110 111 110 112 114 118 120 119 118 119 120 123 122 122 122 124 125 124 124 122 119 122 120 118 119 120 119 116 110 106 104 103 103 103 104 105 105 107 105 99 93 89 86 85 85 82 80 77 77 77 76 69 68 68 68 65 67 84 82 77 75 82 80 72 77 74 70 67 65 67 70 69 71
137 137 135 135 132 129 128 124 120 119 118 116 115 114 113 113 114 116 116 116 117 119 121 120 119 118 122 123 124 124 124 123 123 123 120 122 122 120 115 113 113 109 109 109 103 102 103 105 106 104 102 97 92 88 82 82 84 84 82 81 79 77 74 69 66 64 62 62 61 81 86 87 82 76 84 83 76 74 72 69 68 69 71 71 71
137 138 134 138 136 130 128 124 121 121 121 119 117 116 116 115 112 112 115 117 117 121 120 116 118 123 125 127 127 127 126 125 127 127 122 119 123 120 116 116 116 112 113 109 106 105 103 102 102 103 102 99 95 87 84 86 86 88 86 84 83 81 77 73 66 62 61 56 63 86 87 87 84 78 82 83 80 77 76 72 68 66 68 68 69
138 137 137 138 139 134 131 128 124 122 122 122 121 121 119 118 117 118 119 120 121 120 121 122 123 126 125 125 124 124 125 126 128 128 130 127 123 120 121 120 116 117 116 111 109 108 105 102 104 104 104 102 96 92 92 96 98 96 93 90 88 83 80 75 71 67 62 66 73 84 89 91 83 81 78 81 81 76 73 71 68 66 65 64 67
136 136 137 139 139 137 132 129 126 123 123 123 123 124 125 124 124 124 124 122 123 124 124 125 127 126 128 129 129 129 128 127 129 132 129 120 121 124 124 121 119 117 116 115 114 111 107 105 103 99 98 97 94 88 90 99 108 104 99 95 91 88 84 81 76 70 67 79 78 83 83 89 88 78 71 72 77 76 71 69 66 64 65 67 65
138 139 140 140 139 136 131 128 127 125 125 126 126 128 126 127 128 126 125 126 126 127 126 127 128 129 131 131 129 127 125 126 129 132 126 120 117 115 121 121 117 120 119 116 114 111 107 108 105 103 100 95 90 87 84 90 105 106 101 99 94 93 90 86 80 71 71 77 77 77 81 81 88 89 69 69 68 70 71 70 68 66 63 64 68
140 139 137 139 137 134 130 129 128 128 128 128 130 130 128 129 130 129 128 129 130 130 130 131 131 132 131 128 128 127 123 123 126 126 109 109 116 120 106 105 114 113 110 113 109 108 109 108 103 99 96 93 93 91 89 97 108 107 102 99 97 92 89 84 83 98 88 82 82 82 86 88 84 87 77 72 71 72 69 77 84 72 66 64 65
136 137 143 141 137 134 132 132 131 130 131 130 131 131 130 131 130 130 131 132 132 133 134 134 133 133 132 132 130 125 123 123 124 122 113 106 101 97 101 108 114 119 118 118 117 115 112 107 102 99 96 97 98 97 99 104 108 106 102 99 97 93 88 85 87 81 90 91 89 81 60 56 85 81 86 84 76 76 75 66 66 65 68 71 69
137 140 145 138 135 135 134 134 134 133 132 131 133 132 132 134 133 134 135 134 135 135 135 135 134 136 135 132 125 122 120 120 120 122 124 121 113 113 117 114 116 122 125 125 123 119 112 105 102 101 102 106 108 106 105 108 108 106 104 101 98 94 89 92 109 95 93 96 96 96 87 83 83 89 86 81 81 78 76 74 74 74 72 69 69
140 140 145 137 133 137 136 137 136 135 135 135 135 135 136 136 137 137 137 137 137 136 134 133 133 134 136 132 129 126 123 124 122 124 125 123 124 123 120 116 123 124 126 124 122 117 112 110 106 107 113 115 116 113 112 112 111 108 105 102 98 95 88 86 98 98 96 94 87 89 89 86 89 86 86 83 83 80 79 80 78 77 72 70 74
141 144 143 137 139 139 139 138 140 139 138 138 137 138 138 138 137 137 135 133 133 132 132 132 132 134 137 135 130 128 126 126 125 127 128 129 126 119 115 121 124 127 126 126 124 120 116 111 111 115 118 119 118 116 114 113 112 110 107 104 101 97 92 101 103 98 95 94 98 95 90 87 88 93 96 93 90 85 83 81 83 80 75 75 77
142 144 143 140 140 141 137 140 142 140 140 138 138 139 139 136 136 134 130 130 132 132 133 134 134 134 134 134 130 131 130 130 133 134 133 129 118 110 116 122 125 128 131 130 127 120 114 113 115 119 121 121 120 118 115 114 113 113 110 108 106 102 103 98 99 103 101 99 94 94 91 88 77 73 85 87 86 89 88 87 84 79 77 79 84
143 144 143 141 139 143 137 140 141 139 137 135 137 139 137 139 138 133 136 135 134 136 139 135 133 134 134 130 128 129 134 138 140 137 131 122 116 118 121 126 129 130 132 130 125 119 117 116 117 118 119 121 122 120 118 118 118 115 111 109 106 104 116 113 106 102 101 100 103 97 91 92 81 82 88 94 93 93 86 85 82 81 80 79 78
141 143 141 143 141 142 146 143 139 136 136 136 138 141 140 140 138 137 137 136 136 139 138 137 136 139 139 135 133 136 141 141 138 136 128 123 120 116 116 121 126 129 129 129 126 120 119 121 122 121 126 129 128 127 125 122 118 114 112 108 105 98 92 102 104 104 102 105 96 91 95 86 84 95 90 87 89 90 92 87 85 95 94 82 80
136 140 144 146 143 147 145 150 139 134 132 134 135 134 134 134 134 133 134 137 139 140 141 140 140 142 138 141 143 143 143 142 140 137 129 125 119 113 116 120 124 127 127 129 125 123 123 126 125 129 135 135 134 132 127 121 117 116 114 112 108 102 96 100 105 102 98 96 102 92 93 101 94 95 91 93 95 91 88 90 87 81 79 83 82
138 142 146 146 146 148 147 146 142 143 141 135 130 131 135 136 136 136 139 142 144 144 144 143 142 141 141 143 147 146 145 143 142 135 128 122 117 116 118 123 123 123 126 127 125 125 126 125 128 133 133 134 137 134 125 120 120 119 118 116 114 110 102 108 106 103 103 107 92 89 90 95 91 85 98 102 98 86 89 91 89 89 88 84 83
139 141 147 149 148 149 147 149 146 148 147 146 144 139 139 142 142 143 144 146 146 145 145 146 145 146 147 148 150 150 150 146 141 133 121 120 114 112 116 123 126 125 125 125 125 125 127 128 130 129 129 135 139 131 123 121 121 121 119 118 117 114 116 118 106 107 109 99 100 97 96 101 104 94 91 92 94 98 88 89 89 86 83 81 78
137 145 146 151 149 151 149 151 148 149 150 149 147 149 146 144 146 145 146 147 147 148 149 149 151 151 152 152 153 153 152 150 140 133 127 120 120 119 119 119 124 125 124 123 122 126 128 129 123 120 128 136 132 124 121 123 123 121 120 119 117 125 127 109 111 109 105 98 98 100 112 114 106 107 100 94 91 86 90 80 81 84 85 82 81
142 147 151 153 151 150 153 149 149 148 150 148 150 151 151 150 150 150 151 152 154 154 153 154 155 157 155 156 155 157 157 150 148 145 140 136 125 123 119 118 123 127 127 126 126 126 127 122 112 107 121 128 124 120 121 124 122 122 122 119 128 129 115 119 119 115 109 113 112 108 119 107 109 104 102 97 95 93 88 89 84 89 84 85 86
152 151 157 157 152 151 157 151 152 153 153 152 152 153 154 160 161 161 163 160 160 160 162 167 162 163 160 157 162 159 160 154 151 145 148 142 137 128 126 122 121 124 126 126 125 124 125 120 107 107 120 128 131 133 126 120 121 123 123 134 137 115 123 123 124 118 117 110 104 110 125 118 108 105 104 100 92 89 86 81 80 83 85 80 82
152 157 156 158 154 154 157 153 157 159 159 159 158 158 160 165 168 168 168 169 168 170 171 171 170 167 164 167 163 160 162 157 159 156 153 147 135 135 130 124 114 117 123 124 125 122 117 112 108 111 111 134 146 135 139 139 127 121 133 148 120 124 124 125 121 121 116 108 105 92 94 94 107 109 104 100 97 93 91 97 90 79 85 94 91
157 161 162 158 155 162 164 161 165 165 166 164 161 164 166 170 172 173 172 174 173 175 173 174 173 169 168 169 162 162 163 161 157 153 152 155 145 143 139 127 117 108 117 127 124 115 110 101 104 114 134 151 138 143 142 141 141 150 147 140 130 129 133 131 124 117 114 118 99 102 110 126 112 105 102 101 100 93 91 87 88 85 81 85 83
158 158 158 160 162 164 170 168 169 171 170 167 166 170 172 175 177 177 176 176 175 175 175 177 175 169 171 167 167 164 168 172 166 159 165 157 161 161 155 147 131 122 119 137 144 135 149 135 130 144 148 149 145 142 145 138 138 145 146 140 136 138 132 129 122 120 117 113 107 113 110 89 98 103 110 103 98 93 89 88 84 87 83 75 78
152 161 166 165 168 171 174 172 173 176 176 173 174 175 175 180 179 177 176 176 173 176 176 180 174 173 173 170 164 168 172 172 163 163 160 166 164 168 164 154 135 124 139 134 140 143 139 137 133 140 147 154 147 147 145 146 146 147 149 146 143 144 139 133 127 119 113 113 118 125 85 111 117 119 108 102 101 98 97 91 91 89 88 92 92
162 165 170 170 174 178 178 176 177 178 180 180 179 180 181 179 175 176 175 174 177 176 175 173 175 175 178 172 165 167 170 170 170 166 169 173 166 173 167 160 149 133 136 140 134 136 133 130 124 129 142 151 148 145 150 148 149 150 147 148 147 143 137 135 129 122 114 115 116 76 108 110 132 114 105 109 110 110 109 106 102 94 98 97 88
165 167 176 175 182 184 183 180 182 182 183 181 179 187 180 179 180 176 181 172 178 178 175 175 173 178 177 169 165 168 172 167 171 172 175 179 171 175 174 164 155 133 134 145 145 138 127 122 121 127 143 147 148 152 155 153 151 152 146 150 152 144 144 138 129 122 117 120 129 111 104 101 84 102 113 112 107 111 117 108 107 113 106 96 91
175 178 179 185 189 191 187 188 189 189 181 186 184 189 186 187 183 183 184 170 180 179 176 175 177 175 171 168 167 170 174 172 180 178 174 184 176 181 181 167 160 147 150 153 152 137 127 132 134 137 143 149 151 153 157 156 160 157 154 151 158 148 145 143 135 131 127 130 130 120 112 107 86 121 120 117 120 111 105 107 108 112 106 92 89
181 189 183 192 192 184 195 194 190 192 187 189 188 190 189 186 190 190 190 179 179 183 177 183 184 167 166 171 174 179 181 180 177 178 183 182 172 193 186 177 160 154 172 169 153 138 129 137 137 139 145 154 155 153 161 161 168 160 157 150 153 153 147 148 142 139 134 138 128 126 125 94 87 94 88 109 108 117 113 114 117 104 99 104 100
194 193 197 193 193 183 193 198 193 193 196 192 192 190 190 194 189 193 193 191 185 182 190 189 186 186 179 181 182 184 186 183 178 176 188 178 182 190 192 190 183 176 188 182 146 126 124 131 134 141 151 156 150 155 167 163 166 162 150 151 151 149 150 142 143 141 144 139 135 135 129 111 74 63 35 14 98 109 116 106 88 96 106 107 114
199 202 199 195 192 199 191 191 199 194 188 200 195 198 199 202 189 198 198 194 185 196 196 196 194 194 190 188 192 186 184 182 186 177 181 182 181 187 188 187 199 195 197 195 167 134 122 104 115 124 122 139 139 152 163 163 165 147 151 148 154 156 152 150 151 152 149 145 138 139 141 132 96 58 93 94 105 111 93 112 115 113 112 118 122
205 203 202 202 199 197 201 195 195 205 191 196 198 202 202 197 198 200 206 195 190 199 202 202 197 199 195 190 190 192 184 182 190 181 183 179 181 181 179 182 195 202 202 196 178 149 131 126 122 130 133 123 123 135 141 147 144 130 151 151 153 152 153 163 155 156 156 153 149 140 139 142 137 118 90 78 57 70 102 102 108 98 104 120 120
202 206 204 207 205 201 204 208 197 196 206 202 204 202 208 200 202 199 202 195 199 203 204 205 207 206 201 197 190 194 190 188 187 184 184 179 179 180 176 184 190 195 201 195 192 180 159 134 132 131 118 135 143 149 161 166 150 153 163 143 162 150 166 162 167 163 163 163 153 151 139 141 147 145 131 95 81 69 28 105 114 122 126 120 116
209 204 207 207 204 205 204 206 209 208 199 202 206 208 206 195 188 203 195 198 207 209 208 209 209 212 201 162 210 196 198 196 193 186 186 178 176 176 181 184 185 189 193 199 199 181 167 147 144 135 142 142 148 152 163 162 158 160 157 167 172 162 167 169 171 171 171 159 166 150 148 147 147 150 144 144 120 86 57 59 53 57 122 117 122
212 209 205 204 207 208 202 206 199 207 211 210 207 205 202 195 170 173 191 197 209 212 205 203 209 211 179 133 224 202 202 202 199 192 186 185 180 181 176 178 179 183 191 187 196 187 164 145 152 144 143 147 147 149 155 156 155 153 154 163 167 169 168 174 173 167 169 174 166 157 158 150 159 146 166 132 136 102 73 71 74 76 112 125 133
208 200 204 203 209 205 198 201 199 194 200 208 204 196 192 190 175 183 199 195 209 215 206 207 218 205 149 189 231 217 210 205 206 203 175 184 210 177 169 175 167 177 193 197 197 183 166 156 151 159 151 148 158 148 148 151 150 151 157 165 169 169 173 175 164 162 175 185 169 162 162 160 153 151 179 147 131 125 100 85 99 77 73 110 131
218 212 211 210 209 202 196 195 176 178 192 194 186 190 195 195 188 200 210 204 213 220 196 202 214 206 197 194 197 210 214 212 215 201 153 167 214 167 189 192 174 180 189 203 199 179 174 156 147 156 156 144 156 161 158 156 152 153 164 170 169 173 173 178 159 172 187 182 173 179 160 160 168 163 164 152 115 106 123 123 115 115 100 90 140
219 224 223 218 213 197 190 175 169 178 194 194 182 188 196 199 195 202 211 214 220 220 213 209 209 202 202 202 198 203 206 209 183 111 91 214 195 189 199 212 188 185 192 199 184 171 167 158 151 151 163 170 167 169 162 160 156 157 159 160 166 165 164 161 167 181 192 188 181 179 176 182 174 168 162 157 128 101 96 148 151 159 143 151 170
225 223 220 218 212 193 171 162 170 180 177 159 158 182 199 195 197 203 210 215 217 219 219 223 212 208 202 196 203 211 209 60 58 77 164 186 161 224 209 207 192 186 195 198 177 173 166 164 165 156 154 153 160 165 163 157 145 140 148 158 158 162 162 154 166 182 202 194 191 185 192 183 184 169 186 168 157 106 82 112 145 147 139 151 164
234 237 236 237 233 205 162 155 159 171 159 152 179 194 200 218 211 200 209 212 217 222 228 229 227 227 219 208 202 195 105 134 171 159 178 173 156 227 222 209 194 187 194 188 180 178 179 174 162 161 156 152 161 167 161 154 145 143 150 152 143 156 157 149 177 186 206 201 192 194 189 200 194 185 179 193 188 163 166 161 158 186 166 145 167
295 336 349 2 354 11 18 50 22 152 181 199 198 208 194 156 293 294 338 312 334 256 229 232 236 228 232 221 211 187 153 182 163 145 189 177 163 204 217 208 197 185 164 147 167 149 170 166 157 153 161 154 160 169 163 162 165 161 156 156 138 139 134 159 178 208 209 210 201 194 191 204 204 182 185 215 208 203 197 178 183 212 210 179 154
8 32 36 54 48 72 133 156 210 195 194 164 178 240 247 248 239 238 208 228 210 228 257 253 250 227 212 234 224 182 178 183 138 151 186 195 185 198 198 198 197 185 170 160 168 161 153 161 179 169 162 171 160 171 169 191 165 162 152 142 153 140 149 170 180 206 218 211 205 201 201 204 199 194 210 212 208 204 175 199 210 203 209 227 228
84 102 111 125 162 181 150 96 154 158 132 216 210 237 251 254 277 300 121 184 178 183 265 250 233 232 237 232 231 210 214 185 150 146 196 198 186 190 190 192 199 198 187 178 180 177 169 173 189 191 159 158 172 173 182 195 182 158 166 191 160 194 190 208 185 181 194 207 215 206 200 207 186 168 224 211 222 192 177 201 187 240 222 224 252
124 142 167 177 179 98 105 137 137 142 158 227 230 300 283 261 269 200 125 139 131 219 232 256 242 247 262 244 224 217 235 227 159 161 200 202 176 187 196 180 185 208 195 190 189 182 179 174 195 192 184 178 171 171 180 192 198 200 168 157 165 200 222 157 172 165 193 173 203 205 202 205 185 192 214 193 195 186 188 192 168 244 271 255 203
94 230 199 116 90 119 143 156 157 150 170 182 177 171 169 231 241 252 257 232 153 206 212 263 262 238 248 254 230 226 225 224 195 182 192 191 187 192 196 189 176 204 204 189 194 173 177 187 199 198 191 184 168 168 178 192 205 183 306 338 334 293 185 166 186 175 179 193 175 184 199 190 186 186 199 197 196 201 199 189 186 181 218 258 229
131 331 349 66 71 68 52 67 91 105 136 119 146 167 202 212 234 253 256 232 210 206 198 218 240 246 236 237 214 240 227 206 190 188 190 184 184 183 198 203 187 204 209 197 197 188 184 198 199 195 168 167 176 174 182 185 193 206 205 299 343 317 177 160 196 155 168 179 192 176 176 162 178 186 197 215 217 214 184 247 197 188 172 242 268
24 15 18 32 66 62 41 30 54 91 115 146 136 150 201 194 205 202 171 141 169 189 159 183 203 237 257 245 214 225 214 168 178 211 199 183 182 186 198 204 201 207 209 210 208 199 179 194 196 183 166 173 175 185 187 185 192 196 195 200 199 217 177 181 185 193 178 179 189 188 204 174 179 193 201 211 203 186 152 217 192 173 183 162 291
48 46 42 48 57 56 60 62 63 107 129 144 173 175 185 173 187 198 204 191 189 193 184 213 214 229 253 252 230 223 202 173 198 211 199 202 186 180 194 205 210 209 204 210 211 204 189 191 178 185 181 176 185 190 187 192 198 192 181 192 190 167 160 164 172 195 192 174 178 194 180 155 213 196 189 183 140 168 158 167 147 137 128 107 172
40 50 53 58 64 74 81 90 96 95 103 109 129 176 195 200 206 209 213 216 216 201 191 218 229 235 246 249 241 229 219 182 168 204 225 222 212 189 195 207 212 209 201 208 208 191 184 195 188 188 188 186 184 192 196 195 201 193 192 176 177 157 165 172 188 185 172 225 197 192 181 177 190 187 191 175 160 152 161 127 129 133 110 91 22
44 39 39 49 62 65 82 89 121 151 172 159 160 168 202 208 208 211 217 219 210 198 203 220 221 222 232 239 238 239 224 196 150 190 221 217 220 212 209 207 209 206 207 208 205 178 199 208 192 183 189 188 187 197 201 200 200 192 192 180 181 178 175 186 183 188 195 182 188 165 177 187 182 159 196 163 161 151 152 134 139 135 122 124 86